Location: College Park
(38.9810°N, 76.9370°W)
Time: 22:56:31
(UTC-04:00)

N. Korean satellite - Pass Details

Date: 06 January 2018
Orbit: 458 x 513 km, 97.2° (Epoch: 23 April)

Event Time Altitude Azimuth Distance (km) Brightness Sun altitude
Rises 06:02:12 0° 29° (NNE) 2,516 10.4 -16.0°
Reaches altitude 10° 06:04:45 10° 49° (NE) 1,625 9.6 -15.6°
Maximum altitude 06:07:13 18° 94° (E) 1,199 9.6 -15.1°
Drops below altitude 10° 06:09:39 10° 139° (SE) 1,602 10.1 -14.6°
Sets 06:12:09 0° 159° (SSE) 2,467 10.7 -14.2°
